Tracking 29892 objects as of 21-Nov-2024
HD Live streaming from Space Station
objects crossing your sky now

STARLINK-30275

Track STARLINK-30275 now!
10-day predictions
STARLINK-30275 is classified as:


NORAD ID: 57667
Int'l Code: 2023-124E
Perigee: 464.7 km
Apogee: 466.0 km
Inclination: 53.2 °
Period: 93.8 minutes
Semi major axis: 6836 km
RCS: Unknown
Launch date: August 22, 2023
Source: United States (US)
Launch site: AIR FORCE WESTERN TEST RANGE (AFWTR)
Your satellite tracking list
Your tracking list is empty




NASA's NSSDC Master Catalog

Two Line Element Set (TLE):
1 57667U 23124E   24324.24358281  .00002821  00000-0  90348-4 0  9992
2 57667  53.1620 255.8110 0000960  95.1146 264.9967 15.35903197 70769
Source of the keplerian elements: AFSPC